TimeCDT,TemperatureF,Dew PointF,Humidity,Sea Level PressureIn,VisibilityMPH,Wind Direction,Wind SpeedMPH,Gust SpeedMPH,PrecipitationIn,Events,Conditions,WindDirDegrees,DateUTC
12:15 AM,24.8,24.8,100,30.16,5.0,ESE,4.6,-,N/A,,Partly Cloudy,110,2013-03-28 05:15:00
12:35 AM,24.8,24.8,100,30.16,5.0,ESE,4.6,-,N/A,,Mostly Cloudy,110,2013-03-28 05:35:00
12:55 AM,24.8,24.8,100,30.16,5.0,East,4.6,-,N/A,,Mostly Cloudy,100,2013-03-28 05:55:00
1:15 AM,24.8,24.8,100,30.16,4.0,East,5.8,-,N/A,,Mostly Cloudy,80,2013-03-28 06:15:00
1:35 AM,24.8,24.8,100,30.16,5.0,ESE,5.8,-,N/A,,Mostly Cloudy,120,2013-03-28 06:35:00
1:55 AM,24.8,24.8,100,30.16,5.0,ESE,5.8,-,N/A,,Mostly Cloudy,120,2013-03-28 06:55:00
2:15 AM,24.8,24.8,100,30.15,5.0,East,4.6,-,N/A,,Clear,100,2013-03-28 07:15:00
2:35 AM,23.0,23.0,100,30.15,4.0,ENE,5.8,-,N/A,,Clear,60,2013-03-28 07:35:00
2:55 AM,23.0,23.0,100,30.15,4.0,East,5.8,-,N/A,,Clear,80,2013-03-28 07:55:00
3:15 AM,23.0,23.0,100,30.15,3.0,ENE,6.9,-,N/A,,Scattered Clouds,70,2013-03-28 08:15:00
3:35 AM,23.0,23.0,100,30.15,4.0,East,6.9,-,N/A,,Overcast,80,2013-03-28 08:35:00
3:55 AM,23.0,23.0,100,30.15,5.0,East,4.6,-,N/A,,Overcast,90,2013-03-28 08:55:00
4:15 AM,23.0,23.0,100,30.15,5.0,Calm,Calm,-,N/A,,Overcast,0,2013-03-28 09:15:00
4:35 AM,21.2,21.2,100,30.15,4.0,ESE,3.5,-,N/A,,Scattered Clouds,120,2013-03-28 09:35:00
4:55 AM,21.2,21.2,100,30.14,4.0,ENE,8.1,-,N/A,,Partly Cloudy,70,2013-03-28 09:55:00
5:15 AM,19.4,19.4,100,30.14,3.0,ENE,6.9,-,N/A,,Clear,70,2013-03-28 10:15:00
5:35 AM,19.4,19.4,100,30.14,4.0,East,4.6,-,N/A,,Clear,100,2013-03-28 10:35:00
5:55 AM,19.4,19.4,100,30.14,5.0,East,8.1,-,N/A,,Mostly Cloudy,80,2013-03-28 10:55:00
6:15 AM,19.4,19.4,100,30.13,4.0,East,9.2,-,N/A,,Overcast,80,2013-03-28 11:15:00
6:35 AM,19.4,19.4,100,30.14,5.0,East,4.6,-,N/A,,Overcast,100,2013-03-28 11:35:00
6:55 AM,19.4,19.4,100,30.14,4.0,East,5.8,-,N/A,,Mostly Cloudy,80,2013-03-28 11:55:00
7:15 AM,17.6,17.6,100,30.13,2.0,East,8.1,-,N/A,,Overcast,80,2013-03-28 12:15:00
7:35 AM,17.6,17.6,100,30.14,0.2,East,5.8,-,N/A,Fog,Light Freezing Fog,80,2013-03-28 12:35:00
7:55 AM,19.4,19.4,100,30.14,0.2,ENE,5.8,-,N/A,Fog,Light Freezing Fog,60,2013-03-28 12:55:00
8:15 AM,19.4,19.4,100,30.15,0.2,East,3.5,-,N/A,Fog,Light Freezing Fog,80,2013-03-28 13:15:00
8:35 AM,19.4,19.4,100,30.15,0.2,East,3.5,-,N/A,Fog,Light Freezing Fog,90,2013-03-28 13:35:00
8:55 AM,19.4,19.4,100,30.15,0.2,East,5.8,-,N/A,Fog,Light Freezing Fog,90,2013-03-28 13:55:00
9:15 AM,19.4,19.4,100,30.15,0.2,East,4.6,-,N/A,Fog,Light Freezing Fog,80,2013-03-28 14:15:00
9:35 AM,19.4,19.4,100,30.16,0.2,NE,3.5,-,N/A,Fog,Light Freezing Fog,50,2013-03-28 14:35:00
9:55 AM,21.2,21.2,100,30.16,0.2,ENE,3.5,-,N/A,Fog,Light Freezing Fog,60,2013-03-28 14:55:00
10:15 AM,21.2,21.2,100,30.17,0.2,Calm,Calm,-,N/A,Fog,Light Freezing Fog,0,2013-03-28 15:15:00
10:35 AM,23.0,23.0,100,30.17,0.2,NE,3.5,-,N/A,Fog,Light Freezing Fog,50,2013-03-28 15:35:00
10:55 AM,24.8,24.8,100,30.17,0.2,NE,3.5,-,N/A,Fog,Light Freezing Fog,40,2013-03-28 15:55:00
11:15 AM,24.8,24.8,100,30.17,0.2,ENE,4.6,-,N/A,Fog,Light Freezing Fog,60,2013-03-28 16:15:00
11:35 AM,26.6,26.6,100,30.17,0.2,NE,4.6,-,N/A,,Overcast,50,2013-03-28 16:35:00
11:55 AM,28.4,28.4,100,30.17,0.8,Calm,Calm,-,N/A,Snow,Light Snow,0,2013-03-28 16:55:00
12:15 PM,30.2,30.2,100,30.17,3.0,East,4.6,-,N/A,,Mostly Cloudy,80,2013-03-28 17:15:00
12:35 PM,32.0,32.0,100,30.17,5.0,East,4.6,-,N/A,,Mostly Cloudy,90,2013-03-28 17:35:00
12:55 PM,32.0,32.0,100,30.17,7.0,East,5.8,-,N/A,,Scattered Clouds,90,2013-03-28 17:55:00
1:15 PM,32.0,32.0,100,30.16,8.0,East,6.9,-,N/A,,Clear,100,2013-03-28 18:15:00
1:35 PM,33.8,33.8,100,30.16,8.0,East,5.8,-,N/A,,Clear,100,2013-03-28 18:35:00
1:55 PM,35.6,35.6,100,30.16,9.0,East,8.1,-,N/A,,Clear,100,2013-03-28 18:55:00
2:15 PM,37.4,37.4,100,30.16,10.0,East,5.8,-,N/A,,Clear,90,2013-03-28 19:15:00
2:35 PM,39.2,35.6,87,30.15,10.0,East,6.9,-,N/A,,Clear,80,2013-03-28 19:35:00
2:55 PM,39.2,35.6,87,30.15,10.0,East,6.9,-,N/A,,Clear,80,2013-03-28 19:55:00
3:15 PM,41.0,35.6,81,30.14,10.0,East,8.1,-,N/A,,Clear,90,2013-03-28 20:15:00
3:35 PM,42.8,35.6,76,30.14,10.0,East,8.1,-,N/A,,Clear,90,2013-03-28 20:35:00
3:55 PM,44.6,35.6,71,30.13,10.0,East,8.1,-,N/A,,Clear,100,2013-03-28 20:55:00
4:15 PM,44.6,35.6,71,30.13,10.0,East,8.1,-,N/A,,Clear,90,2013-03-28 21:15:00
4:35 PM,44.6,35.6,71,30.13,10.0,East,9.2,-,N/A,,Clear,80,2013-03-28 21:35:00
4:55 PM,44.6,35.6,71,30.13,10.0,ENE,9.2,-,N/A,,Clear,70,2013-03-28 21:55:00
5:15 PM,44.6,35.6,71,30.13,10.0,East,11.5,-,N/A,,Clear,80,2013-03-28 22:15:00
5:35 PM,44.6,35.6,71,30.13,10.0,ENE,10.4,-,N/A,,Clear,70,2013-03-28 22:35:00
5:55 PM,44.6,32.0,61,30.14,10.0,ENE,8.1,-,N/A,,Clear,70,2013-03-28 22:55:00
6:15 PM,42.8,35.6,76,30.14,10.0,ENE,10.4,-,N/A,,Clear,70,2013-03-28 23:15:00
6:35 PM,41.0,33.8,76,30.14,10.0,East,11.5,-,N/A,,Clear,80,2013-03-28 23:35:00
6:55 PM,41.0,32.0,70,30.14,10.0,East,10.4,-,N/A,,Clear,80,2013-03-28 23:55:00
7:15 PM,39.2,33.8,81,30.14,10.0,ENE,11.5,-,N/A,,Clear,70,2013-03-29 00:15:00
7:35 PM,37.4,33.8,87,30.15,10.0,East,9.2,-,N/A,,Clear,80,2013-03-29 00:35:00
7:55 PM,35.6,33.8,93,30.15,10.0,East,10.4,-,N/A,,Clear,90,2013-03-29 00:55:00
8:15 PM,32.0,32.0,100,30.15,10.0,East,11.5,-,N/A,,Clear,80,2013-03-29 01:15:00
8:35 PM,32.0,32.0,100,30.15,10.0,East,13.8,-,N/A,,Clear,90,2013-03-29 01:35:00
8:55 PM,32.0,32.0,100,30.16,10.0,East,12.7,-,N/A,,Partly Cloudy,80,2013-03-29 01:55:00
9:15 PM,32.0,32.0,100,30.16,10.0,East,12.7,-,N/A,,Partly Cloudy,90,2013-03-29 02:15:00
9:35 PM,30.2,30.2,100,30.16,8.0,East,11.5,-,N/A,,Clear,90,2013-03-29 02:35:00
9:55 PM,30.2,30.2,100,30.17,7.0,East,11.5,-,N/A,,Clear,80,2013-03-29 02:55:00
10:15 PM,28.4,28.4,100,30.17,5.0,East,10.4,-,N/A,,Clear,80,2013-03-29 03:15:00
10:35 PM,28.4,28.4,100,30.17,4.0,ENE,9.2,-,N/A,,Clear,70,2013-03-29 03:35:00
10:55 PM,28.4,28.4,100,30.17,3.0,ENE,9.2,-,N/A,,Scattered Clouds,70,2013-03-29 03:55:00
11:15 PM,26.6,26.6,100,30.16,0.2,ENE,8.1,-,N/A,,Overcast,70,2013-03-29 04:15:00
11:35 PM,26.6,26.6,100,30.16,0.2,ENE,8.1,-,N/A,,Overcast,70,2013-03-29 04:35:00
11:55 PM,26.6,26.6,100,30.17,0.2,East,6.9,-,N/A,,Overcast,90,2013-03-29 04:55:00